Theta_e
300 301 302 303 307 331 339 341 342 341 341 339 337 338 337 336 334 335 335 336 334 319 331 330 329 327 330 329 331 333 331 329
299 299 300 301 303 313 338 341 342 341 338 337 338 337 335 333 333 333 332 333 333 332 330 329 329 332 330 332 332 332 329 329
297 297 298 299 300 303 307 321 342 341 339 337 338 337 334 333 331 330 329 330 330 330 329 332 329 334 333 333 332 329 326 328
296 297 297 298 299 301 304 308 322 341 339 337 337 336 334 333 331 330 330 330 327 329 323 323 327 330 333 333 332 330 326 326
296 296 297 298 299 301 304 308 315 336 340 337 336 336 334 334 332 331 330 330 327 323 319 318 328 328 332 331 331 329 327 326
296 296 296 297 299 301 302 305 310 323 333 338 336 336 336 334 332 331 329 328 326 324 325 329 328 326 332 331 330 329 330 326
295 295 296 297 297 299 300 303 306 311 319 327 336 336 336 335 333 332 331 330 327 327 328 328 327 328 328 332 331 331 328 326
295 295 296 296 297 298 299 301 304 306 312 320 327 336 335 335 334 333 332 331 331 327 327 325 328 330 331 330 330 329 329 327
293 294 295 296 296 298 298 299 302 304 307 311 320 328 335 335 334 334 332 331 331 329 325 325 328 330 328 331 330 324 327 327
293 293 294 295 295 297 297 298 300 302 304 306 313 324 331 335 334 333 332 332 332 330 327 327 328 331 327 326 330 329 328 327
291 292 293 294 294 295 296 297 298 300 302 304 307 311 326 332 334 333 332 331 330 330 328 329 329 331 331 328 330 330 329 328
290 291 292 292 293 294 295 295 296 297 300 302 304 310 321 332 332 332 332 331 330 329 329 328 328 328 330 332 332 331 330 330
290 290 291 292 292 293 295 294 294 295 298 300 302 306 314 330 332 332 332 331 330 330 329 328 327 327 328 332 332 332 331 331
289 290 290 291 291 292 293 294 294 294 297 300 300 302 305 319 332 332 333 332 330 329 329 328 328 327 327 330 333 333 332 332
289 289 289 290 290 291 292 293 293 294 295 298 299 299 302 307 317 332 332 334 332 330 329 328 328 327 327 329 332 333 333 333
289 289 290 290 290 290 291 292 293 293 293 296 297 299 299 303 311 319 331 332 333 332 330 329 328 328 327 327 330 332 333 333
289 289 289 289 290 290 291 291 291 292 293 294 296 297 298 300 303 311 323 330 332 332 331 330 329 329 329 329 328 330 330 332
289 289 289 288 289 289 290 291 291 291 292 293 294 296 297 298 300 304 312 323 329 332 332 331 331 330 329 330 329 329 329 330
289 289 288 288 288 288 289 290 291 290 292 292 293 294 296 297 298 300 306 314 328 328 331 331 331 331 331 331 331 329 329 328
Wind_Speed
38 43 42 42 41 20 38 41 42 40 33 32 32 36 38 40 39 39 38 39 38 33 28 33 34 33 35 36 31 30 35 29
35 41 41 42 46 29 23 31 38 38 36 34 34 35 34 36 39 41 43 37 31 31 29 33 35 36 37 37 31 32 27 33
34 42 43 41 39 38 34 16 32 45 42 38 40 40 38 37 39 43 43 43 40 37 34 32 38 35 37 36 34 27 22 36
25 35 40 40 41 40 36 34 21 33 36 32 28 28 29 32 39 42 44 43 46 42 41 35 31 30 32 38 40 32 26 24
22 30 36 38 40 37 36 35 28 18 25 31 40 38 34 34 37 38 44 47 45 49 41 42 37 35 27 35 41 38 34 28
24 28 33 33 35 36 37 35 30 15 9 29 37 37 35 32 34 35 41 43 41 48 50 47 49 43 32 36 34 36 38 32
25 30 31 33 36 36 37 36 32 29 18 18 33 36 36 33 35 33 36 36 42 48 48 38 38 37 34 37 40 38 38 33
21 24 30 35 37 36 39 35 33 32 24 13 6 28 33 43 41 41 39 38 39 46 48 44 37 35 38 39 36 37 41 39
21 27 29 32 36 35 37 39 33 34 30 24 13 8 26 35 47 45 45 44 43 41 45 42 39 35 44 38 38 39 39 43
22 28 30 31 33 34 36 35 35 34 30 28 18 11 16 29 31 34 37 39 39 43 42 42 37 38 45 44 38 37 35 40
21 29 30 33 34 34 35 35 34 32 33 29 25 21 13 26 34 35 37 38 38 39 41 41 39 37 44 45 38 38 38 41
17 26 31 30 32 33 35 36 36 38 37 37 32 29 17 24 29 40 39 39 41 41 42 42 43 43 38 40 37 37 40 37
14 19 25 26 29 32 32 37 38 38 35 37 37 34 25 18 34 33 39 42 42 42 44 44 45 45 43 38 40 37 41 38
15 20 21 26 30 31 34 34 38 39 35 32 34 34 34 28 32 34 36 39 41 40 40 45 45 46 46 42 43 43 42 43
14 15 18 25 28 31 32 35 39 41 37 36 34 37 36 33 25 35 35 38 40 42 44 45 46 45 46 44 42 42 41 41
14 15 18 22 23 28 33 37 41 41 41 38 40 37 35 34 26 27 36 38 41 43 43 45 46 46 44 44 43 41 38 39
15 15 23 25 28 26 35 37 41 43 42 40 37 40 39 34 30 24 19 36 42 41 42 42 43 44 45 48 46 42 39 41
16 14 18 20 23 25 27 34 37 43 43 44 41 41 40 38 32 27 20 20 34 38 39 43 46 47 49 50 52 45 42 42
17 25 23 28 32 34 34 32 33 38 43 44 44 42 40 39 34 27 23 18 23 35 42 44 47 48 51 53 54 51 43 43
Wind_Direction
349 349 352 356 357 239 192 184 185 182 179 176 176 181 189 190 183 183 178 179 177 175 194 190 187 187 185 188 187 174 167 157
353 349 352 358 2 8 218 191 182 177 178 178 172 177 179 184 185 182 180 178 182 183 190 195 189 192 190 190 179 167 154 162
356 353 352 357 354 357 357 313 198 183 184 188 180 175 176 178 183 186 185 188 186 186 185 195 195 196 190 181 172 155 157 162
354 353 350 352 354 350 345 344 316 204 187 180 174 166 170 174 184 189 192 188 190 187 188 189 207 206 187 183 176 172 163 172
357 357 352 351 350 346 347 348 349 242 196 185 174 173 173 189 186 188 191 192 190 193 189 193 211 216 202 183 181 178 170 177
359 1 355 352 350 349 350 350 351 351 246 200 189 181 186 180 178 184 189 197 192 191 193 195 201 213 211 192 184 183 191 183
358 3 358 356 353 352 352 352 350 349 355 344 201 196 180 168 175 181 189 195 202 201 206 204 196 206 206 200 194 197 195 194
351 359 2 357 356 351 354 348 348 349 353 351 347 211 194 177 174 179 191 196 198 203 206 204 202 203 199 197 198 206 208 202
356 349 360 359 355 352 351 351 346 352 351 343 326 309 209 196 186 190 194 195 199 201 203 202 205 205 203 204 213 210 211 208
355 351 360 358 353 352 353 348 348 351 350 344 341 308 259 205 203 195 198 196 199 201 201 201 202 208 209 210 207 207 207 207
356 356 352 358 356 352 355 353 350 346 351 346 339 321 293 222 203 200 199 201 201 202 200 202 200 200 206 207 206 206 205 207
351 357 357 352 352 356 356 357 353 351 350 348 347 335 323 242 211 203 201 203 205 203 203 203 205 204 207 204 200 202 205 203
341 350 1 2 358 359 358 358 358 354 349 352 346 342 317 276 227 214 205 206 207 209 202 207 206 209 208 207 205 208 206 204
348 353 357 5 1 359 358 360 360 356 350 351 355 347 337 333 232 224 214 207 207 207 206 205 207 209 209 207 207 208 207 207
335 351 359 352 357 358 357 0 3 359 355 356 356 351 340 329 326 228 221 211 206 207 206 205 206 208 207 207 207 208 208 208
335 341 349 349 350 356 358 5 4 1 358 355 356 351 346 339 325 320 232 220 210 210 208 206 205 206 209 209 207 209 206 207
331 338 342 346 349 348 0 2 3 2 359 354 351 352 349 341 331 309 304 227 223 211 211 208 207 207 210 212 210 208 207 205
326 326 332 336 333 348 356 359 359 5 359 354 352 354 349 343 335 319 310 269 219 217 216 212 210 208 208 212 212 210 209 211
336 334 331 343 347 355 356 348 356 6 2 353 350 350 348 342 338 335 327 306 237 220 222 217 215 210 207 210 212 210 214 215